Regional Weather Roundup
Issued by NWS Jackson, KY

Home | Current Version | Previous Version | Graphics & Text | Print | Product List | Glossary On
Versions: 1 2 3 4 5 6 7 8 9 10 11 12 13 14 15 16 17 18 19 20 21 22 23 24 25 26 27 28 29 30 31 32 33 34 35 36 37 38 39 40 41 42 43 44 45 46 47 48 49 50
000
ASUS43 KJKL 281710
RWRJKL

EAST KENTUCKY HOURLY WEATHER ROUNDUP
NATIONAL WEATHER SERVICE JACKSON KY
100 PM EDT FRI APR 28 2017

NOTE: "FAIR" INDICATES FEW OR NO CLOUDS BELOW 12,000 FEET WITH
NO SIGNIFICANT WEATHER AND/OR OBSTRUCTIONS TO VISIBILITY.

* THESE REPORTS ARE NOT UNDER NWS QUALITY CONTROL AND MAY NOT
  REPORT WEATHER SUCH AS PRECIPITATION AND FOG.

KYZ079-080-083-085-087-088-110-112-115-119-120-281800
...EASTERN KENTUCKY...

CITY           SKY/WX    TMP DP  RH WIND       PRES   REMARKS
JACKSON        CLOUDY    75  56  51 VRB6      30.00F
LONDON         SUNNY     76  54  46 S10       29.99F
SOMERSET*      CLOUDY    75  55  50 SW5       29.98F
MONTICELLO*    MOSUNNY   79  62  56 SW16G24   29.98F
WILLIAMSBURG*  SUNNY     75  59  57 SE8       29.99F
MIDDLESBORO*   MOSUNNY   77  60  55 S9        30.02S
HARLAN APT*    SUNNY     79  55  44 CALM      30.02F
PIKE CO APT*     N/A     73  57  56 S3        30.02F
BIG SANDY APT* MOSUNNY   76  59  55 S8        30.02F
MOREHEAD APT*  SUNNY     73  52  46 SE8       30.00F
$$

KYZ035-036-041-042-044-050-067-078-099-281800
...CENTRAL KENTUCKY...

CITY           SKY/WX    TMP DP  RH WIND       PRES   REMARKS
MT STERLING*   CLOUDY    73  55  53 S9        30.00S
FLEMING/MASON* CLOUDY    71  54  53 S8        30.00F
DANVILLE*      CLOUDY    73  55  53 SW9       29.98S
LEXINGTON      CLOUDY    73  55  53 S12       29.98S
FRANKFORT      CLOUDY    72  55  55 S7        29.96S
LOUISVILLE     PTSUNNY   69  55  60 S6        29.96S
LEBANON*         N/A     73  57  56 S6        29.96F
GLASGOW*       MOSUNNY   76  62  60 S9G18     29.93F
BOWLING GREEN  CLOUDY    77  65  66 S18G25    29.91F
$$

KYZ091>093-OHZ055-061-077-WVZ005-015-034-035-042-281800
...SOUTHERN OHIO/WEST VIRGINIA...

CITY           SKY/WX    TMP DP  RH WIND       PRES   REMARKS
COVINGTON      CLOUDY    65  51  60 SE6       29.99F
COLUMBUS       PTSUNNY   63  47  55 E7        30.01F
DAYTON         CLOUDY    58  48  69 SE6       30.02S
WILMINGTON     MOSUNNY   66  51  58 SE6       30.01S
HUNTINGTON     SUNNY     74  54  49 VRB5      30.00F
CHARLESTON     MOSUNNY   76  57  51 E6        30.01F
PINEVILLE*     CLOUDY    77  55  45 MISG      30.09F
BECKLEY        MOSUNNY   74  47  38 SW8       30.08F
BLUEFIELD      SUNNY     74  47  38 VRB6      30.10F
LOGAN CO APT*    N/A     75  57  53 S6        30.03F
$$

VAZ002-007-008-TNZ017-027-036-066-071-281800
...SOUTHWEST VIRGINIA/EAST TENNESSEE...

CITY           SKY/WX    TMP DP  RH WIND       PRES   REMARKS
WISE*          SUNNY     73  46  38 S10       30.09S
JONESVILLE*      N/A     77  55  47 SE5       30.04F
ABINGDON*      SUNNY     78  55  44 CALM      30.07F
BRISTOL        MOSUNNY   78  54  43 VRB3      30.03F
MORRISTOWN*    SUNNY     77  57  50 CALM      30.00F
SEVIERVILLE*   SUNNY     79  55  44 CALM      29.97F
KNOXVILLE      PTSUNNY   79  61  53 W13       29.99S
LAFOLLETTE*    MOSUNNY   77  61  57 S8        30.03S
OAK RIDGE      PTSUNNY   79  60  52 VRB7      30.02R
CROSSVILLE     PTSUNNY   71  61  70 S12G20    30.03S
NASHVILLE      PTSUNNY   78  64  61 SW16G22   29.94S
$$

...KEY TO REMARKS...
VSB - VISIBILITY IN MILES
WCI - WIND CHILL INDEX
HX  - HEAT INDEX

$$



USA.gov is the U.S. government's official web portal to all federal, state and local government web resources and services.